Location: Assche-ter-Heiden
(50.9174°N, 4.1574°E)
Time: 09:12:15
(UTC+00:00)

CZ-2C R/B - Pass Details

Date: 20 January 2020
Orbit: 785 x 870 km, 98.3° (Epoch: 16 February)

Event Time Altitude Azimuth Distance (km) Brightness Sun altitude
Rises 06:42:57 0° 150° (SSE) 3,293 6.7 -8.2°
Reaches altitude 10° 06:45:17 10° 146° (SE) 2,376 6.0 -7.9°
Maximum altitude 06:50:25 57° 69° (ENE) 959 3.3 -7.2°
Drops below altitude 10° 06:55:42 10° 352° (N) 2,444 4.8 -6.4°
Sets 06:58:07 0° 349° (NNW) 3,395 5.5 -6.1°
